209  
AXUS43 KGID 310302  
MISGRI  
 
GID CWA HOURLY WEATHER ROUNDUP  
NATIONAL WEATHER SERVICE HASTINGS NE  
1000 PM CDT THU JUL 30 2015  
 
NOTE: "FAIR" INDICATES FEW OR NO CLOUDS BELOW 12,000 FEET WITH NO  
SIGNIFICANT WEATHER AND/OR OBSTRUCTIONS TO VISIBILITY.  
   
..SOUTH CENTRAL NEBRASKA
 
 
 
CITY SKY/WX TMP DP RH WIND PRES REMARKS  
GRAND ISLAND MOCLDY 76 67 73 S5 30.16R  
HASTINGS PTCLDY 78 66 66 SE9 30.17R  
KEARNEY PTCLDY 75 66 73 SE5 30.17R  
ORD PTCLDY 73 66 78 S7 30.13R  
YORK PTCLDY 75 66 73 S5 30.14S  
AURORA PTCLDY 74 69 84 S3 30.16R  
LEXINGTON MOCLDY 75 67 76 S6 30.18R  
HOLDREGE PTCLDY 73 67 82 E3 30.17R  
HEBRON CLEAR 74 66 76 S5 30.15R  
   
..NEBRASKA PANHANDLE
 
 
 
CITY SKY/WX TMP DP RH WIND PRES REMARKS  
CHADRON CLEAR 73 48 41 NE3 30.20R  
ALLIANCE CLEAR 68 51 54 NE9 30.24R  
SCOTTSBLUFF CLEAR 72 52 49 NE9 30.23R  
SIDNEY CLEAR 67 60 78 S7 30.28R  
   
..WESTERN AND NORTH CENTRAL NEBRASKA
 
 
 
CITY SKY/WX TMP DP RH WIND PRES REMARKS  
VALENTINE CLEAR 76 51 41 E5 30.18R  
AINSWORTH CLEAR 73 55 53 E3 30.18R  
ONEILL MOCLDY 78 67 69 N7 30.14R  
BROKEN BOW PTCLDY 73 67 81 CALM 30.18R  
IMPERIAL MOCLDY 76 58 53 S8 30.21R  
NORTH PLATTE MOCLDY 76 62 62 S6 30.19R  
MCCOOK CLOUDY 78 62 57 SE6 30.19R  
   
..EASTERN NEBRASKA
 
 
 
CITY SKY/WX TMP DP RH WIND PRES REMARKS  
NORFOLK MOCLDY 76 66 71 CALM 30.12R  
SO SIOUX CITY CLEAR 76 70 82 S3 30.11R  
TEKAMAH PTCLDY 72 70 93 CALM 30.11R  
COLUMBUS CLEAR 75 64 69 S5 30.13R  
ALBION CLEAR 74 66 75 SE3 30.13R  
OMAHA EPPLEY PTCLDY 76 67 73 SE3 30.12R  
OFFUTT AFB CLEAR 69 66 90 S5 30.11R  
MILLARD CLEAR 76 67 71 CALM 30.11R  
LINCOLN CLEAR 73 61 65 S6 30.14R  
NEBRASKA CITY CLEAR 72 64 74 SW6 30.14R  
BEATRICE PTCLDY 75 62 62 S6 30.14R  
FALLS CITY CLEAR 75 65 70 S5 30.14R  
   
..NORTHERN KANSAS
 
 
 
CITY SKY/WX TMP DP RH WIND PRES REMARKS  
GOODLAND CLOUDY 75 60 59 SW8 30.28R  
HILL CITY PTCLDY 76 66 71 S6 30.19R  
NORTON CLEAR 75 61 60 CALM 30.20R  
PHILLIPSBURG CLEAR 81 68 65 CALM 30.17R  
SMITH CENTER CLEAR 75 66 73 SE6 30.18R  
HAYS CLEAR 75 63 64 SE7 30.19R  
RUSSELL CLEAR 73 67 81 SE7 30.17R  
CONCORDIA CLEAR 73 68 84 S7 30.16R  
SALINA CLEAR 76 67 73 S3 30.15R  
TOPEKA CLEAR 75 67 76 CALM 30.14R  
 
CLICK HERE TO GO TO PREVIOUS BULLETINS.

The Nexlab NE Page
The Nexlab KS Page Main Text Page